sat.trackr.live / text

‹ back to catalog

2024-018B

NORAD 58850 · 2024-018B

PAYLOAD ACTIVE UNKNOWN

§ Identity

Operator
Country
IRAN
Launch date
2024-01-28
Launch site
SEMLS
Launch vehicle
Mass (kg)
RCS (m²)

External: N2YO · Heavens-Above · Gunter

§ Orbital elements

Epoch: 2026-05-25T04:18:18.724032Z

Period
99.74 min
Inclination
58.6930°
Eccentricity
0.0420999
Mean motion
14.43683639 rev/d
Perigee alt
446.4 km
Apogee alt
1,046.3 km
Semi-major
7,124.5 km
B*
3.6538e-4
RAAN
299.0655°
Arg perigee
81.7081°
Mean anomaly
283.1446°
Rev number
12,207

§ Raw data

2024-018B1 58850U 24018B   26145.17938338  .00003508  00000+0  36538-3 0  99942 58850  58.6930 299.0655 0420999  81.7081 283.1446 14.43683639122070

JSON: /api/v1/satellites/58850 · /tle

For live sub-satellite position, see the globe view (requires WebGL).

§ Visibility from observer

Set your observer location to see the next 7 days of passes ≥ 10°. The values pass through the URL so the page stays shareable.

No JS? Fill the form by hand. The geolocation button needs JavaScript.